Location: Tauranga
(37.6860°S, 176.1670°E)
Time: 23:10:40
(UTC+13:00)

CZ-4C R/B - Pass Details

Date: 24 January 2019
Orbit: 654 x 1348 km, 63.4° (Epoch: 15 October)

Event Time Altitude Azimuth Distance (km) Brightness Sun altitude
Rises 22:01:16 0° 202° (SSW) 3,629 6.6 -15.3°
Reaches altitude 10° 22:05:49 10° 173° (S) 2,501 5.1 -16.0°
Maximum altitude 22:08:03 12° 150° (SSE) 2,258 4.6 -16.3°
Drops below altitude 10° 22:10:11 10° 126° (SE) 2,337 4.4 -16.6°
Enters shadow 22:12:04 - 108° (ESE) 2,643 4.5 -16.9°
